Home   Weather   Singapore   Past weeks
Flag for Singapore

Past Weather in Singapore, Singapore — Yesterday and Last 2 Weeks

Now
84 °F

Passing clouds.


Feels Like: 92 °F
Forecast: 89 / 79 °F
Wind: 1 mph from South

Location: Singapore / Paya Lebar

Current Time: May 21, 2019 at 1:04:09 am

Latest Report: May 21, 2019 at 12:00 am


Visibility: N/A

Pressure: 29.86 "Hg

Humidity: 74%

Dew Point: 75 °F

Location of SingaporeLocation

Past Weather in Singapore — Graph

°F

Singapore Temperature Yesterday

Maximum temperature yesterday: 90 °F (at 11:00 am)
Minimum temperature yesterday: 82 °F (at 12:00 am)
Average temperature yesterday: 85 °F

High & Low Weather Summary for the Past Weeks

 TemperatureHumidityPressure
High95 °F (May 6, 3:00 pm)94% (May 8, 5:00 am)29.89 "Hg (May 8, 5:00 am)
Low75 °F (May 8, 10:33 am)47% (May 6, 5:00 pm)29.71 "Hg (May 7, 4:00 pm)
Average86 °F77%29.81 "Hg
* Reported May 6 12:00 am — May 21 12:00 am, Singapore. Weather by CustomWeather, © 2019

Note: Actual official high and low records may vary slightly from our data, if they occured in-between our weather recording intervals... More about our weather records

Advertising

Singapore Weather History for the Previous 24 Hours

Scroll right to see more
 ConditionsComfort  
Time TempWeatherWind HumidityBarometerVisibility
12:00 am
Tue, May 21
84 °FPassing clouds.1 mph74%29.86 "HgN/A
11:00 pm
Mon, May 20
84 °FPassing clouds.3 mph74%29.89 "HgN/A
10:00 pm84 °FPassing clouds.5 mph79%29.86 "HgN/A
9:00 pm86 °FPassing clouds.6 mph75%29.83 "HgN/A
8:00 pm86 °FPassing clouds.7 mph70%29.80 "HgN/A
7:00 pm86 °FPartly sunny.7 mph75%29.77 "HgN/A
6:00 pm88 °FPartly sunny.8 mph70%29.77 "HgN/A
5:00 pm88 °FPartly sunny.7 mph70%29.74 "HgN/A
4:00 pm88 °FPartly sunny.10 mph70%29.77 "HgN/A
3:00 pm88 °FPartly sunny.8 mph70%29.80 "HgN/A
2:00 pm88 °FPartly sunny.12 mph70%29.83 "HgN/A
1:00 pm90 °FScattered showers. Scattered clouds.12 mph67%29.86 "HgN/A
12:00 pm88 °FScattered showers. Partly sunny.10 mph70%29.89 "HgN/A
11:00 am90 °FBroken clouds.6 mph71%29.89 "HgN/A
10:00 am88 °FBroken clouds.3 mph75%29.86 "HgN/A
9:00 am86 °FPartly sunny.1 mph79%29.86 "Hg6 mi
8:00 am82 °FPartly sunny.No wind89%29.86 "Hg6 mi
7:00 am82 °FPartly sunny.1 mph84%29.83 "HgN/A
6:00 am82 °FPassing clouds.3 mph84%29.83 "HgN/A
5:00 am82 °FPassing clouds.No wind84%29.80 "HgN/A
4:00 am82 °FPartly cloudy.No wind84%29.80 "HgN/A
3:00 am82 °FPassing clouds.2 mph84%29.80 "HgN/A
2:00 am82 °FPassing clouds.No wind84%29.83 "HgN/A
1:00 am82 °FPassing clouds.1 mph84%29.83 "HgN/A
Weather by CustomWeather, © 2019

See weather overview